Regional Weather Roundup
Issued by NWS

Home | Current Version | Previous Version | Graphics & Text | Print | Product List | Glossary Off
Versions: 1 2 3 4 5 6 7 8 9 10 11 12 13 14 15 16 17 18 19 20 21 22 23 24 25 26 27 28 29 30 31 32 33 34 35 36 37 38 39 40 41 42 43 44 45 46 47 48 49 50

000
ASUS43 KLOT 281210
RWRIL

ILLINOIS REGIONAL WEATHER ROUNDUP
NATIONAL WEATHER SERVICE CHICAGO/ROMEOVILLE IL
600 AM CST WED JAN 28 2015

NOTE: "FAIR" INDICATES FEW OR NO CLOUDS BELOW 12,000 FEET WITH NO
SIGNIFICANT WEATHER AND/OR OBSTRUCTIONS TO VISIBILITY.

* THESE STATIONS ARE NOT UNDER NWS QUALITY CONTROL. THEY ALSO MAY NOT
  REPORT WEATHER SUCH AS PRECIPITATION OR FOG.

ILZ001-002-007-009-015-016-024-281300-
NORTHWEST ILLINOIS

CITY           SKY/WX    TMP DP  RH WIND       PRES   REMARKS
MOLINE         PTCLDY    28  22  78 SE7       30.20S WCI  21
6HR MIN TEMP:  27; 6HR MAX TEMP:  29;

STERLING*      CLOUDY    27  23  86 SE7       30.24S WCI  19
SAVANNA*       CLOUDY    29  25  85 SE9       30.21F WCI  20
$$

ILZ003-004-008-010-011-017-018-281300-
NORTH CENTRAL ILLINOIS

CITY           SKY/WX    TMP DP  RH WIND       PRES   REMARKS
ROCKFORD       CLOUDY    22  18  85 S5        30.27R WCI  16
6HR MIN TEMP:  20; 6HR MAX TEMP:  24;

FREEPORT*      CLOUDY    24  21  88 SE7       30.25S WCI  16
ROCHELLE*      PTCLDY    16  13  90 S7        30.26R WCI   6
DE KALB*       PTCLDY    18  15  88 S6        30.25R WCI  10
PERU*          MOCLDY    23  19  84 SE7       30.27R WCI  14
$$

ILZ005-006-012>014-019>023-281300-
NORTHEAST ILLINOIS

CITY           SKY/WX    TMP DP  RH WIND       PRES   REMARKS
CHICAGO-OHARE  PTCLDY    20  16  84 S5        30.27R WCI  13
6HR MIN TEMP:  20; 6HR MAX TEMP:  24;

CHICAGO-MIDWAY CLEAR     24  17  74 S5        30.29R WCI  18
6HR MIN TEMP:  24; 6HR MAX TEMP:  27;

AURORA         PTCLDY    20  15  81 SE5       30.26S WCI  13
6HR MIN TEMP:  17; 6HR MAX TEMP:  23;

LANSING*       PTCLDY    17  14  86 CALM      30.28S
JOLIET*        CLEAR     21  17  84 SE3       30.27F
WAUKEGAN       PTCLDY    17  14  88 CALM      30.26R
6HR MIN TEMP:  16; 6HR MAX TEMP:  22;

DUPAGE AIRPORT PTCLDY    17  14  88 SE5       30.26R WCI  10
6HR MIN TEMP:  17; 6HR MAX TEMP:  23;

KANKAKEE*      CLEAR     20  17  87 SE3       30.29R
WHEELING       CLEAR     19  16  88 S3        30.29R
6HR MIN TEMP:  19; 6HR MAX TEMP:  23;

MORRIS*        PTCLDY    20  18  90 SE6       30.27S WCI  13
ROMEOVILLE*    CLEAR     20  17  86 SE7       30.27R WCI  11
NORTHERLY ISL    N/A     24  14  65 S6          N/A  WCI  17
$$

LMZ740>746-281300-
SOUTHERN LAKE MICHIGAN

STATION/POSITION SKY/WX   TEMP    WIND        PRES    VSBY  WAVE
                          AIR SEA DIR/SP/G                  HT/PER
                          (F)     (DEG/KT/KT) (MB)    (MI)  (FT/S)
WAUKEGAN HARBOR            27     160/  4/  7   N/A
HARRISON CRIB              26     170/ 13/ 15   N/A
BURNHAM HARBOR             25     190/  6/  9   N/A
CALUMET HARBOR             23     170/  6/  8   N/A
MICHIGAN CITY              21     130/  7/  9   N/A
$$

ILZ025>027-034>036-040-047-049-050-058-095>099-281300-
WEST-CENTRAL ILLINOIS

CITY           SKY/WX    TMP DP  RH WIND       PRES   REMARKS
QUINCY         CLEAR     27  24  89 SE12      30.17S FOG     WCI  17
GALESBURG*     PTCLDY    25  23  89 SE8       30.19F WCI  17
MACOMB*        CLEAR     26  24  91 SE9       30.22S WCI  17
JACKSONVILLE*  CLEAR     29  25  84 SE9       30.23R WCI  20
PITTSFIELD*    CLEAR     29  26  91 SE10      30.21S FOG     WCI  19
$$

ILZ028>032-037-038-041>044-048-051>054-059>061-281300-
CENTRAL ILLINOIS

CITY           SKY/WX    TMP DP  RH WIND       PRES   REMARKS
PONTIAC        PTCLDY    23  20  89 SE5       30.29R WCI  16
BLOOMINGTON    CLEAR     22  19  88 S8        30.27R WCI  13
DECATUR        CLEAR     23  17  78 SE6       30.28R WCI  16
PEORIA         PTCLDY    26  22  84 SE6       30.25S FOG     WCI  19
6HR MIN TEMP:  26; 6HR MAX TEMP:  31;

LACON*         PTCLDY    24  20  85 SE6       30.26S WCI  17
LINCOLN*       PTCLDY    24  21  89 SE3       30.28R
SPRINGFIELD    CLEAR     27  21  78 SE10      30.25S WCI  17
6HR MIN TEMP:  24; 6HR MAX TEMP:  27;

TAYLORVILLE    CLEAR     25  21  86 SE8       30.27R WCI  16
$$

ILZ033-039-045-046-055>057-062-063-281300-
EAST-CENTRAL ILLINOIS

CITY           SKY/WX    TMP DP  RH WIND       PRES   REMARKS
CHAMPAIGN      CLEAR     21  17  84 SE7       30.28R WCI  12
DANVILLE*      CLEAR     20  16  86 SE6       30.26R WCI  12
RANTOUL*       CLEAR     24  19  81 SE8       30.28R WCI  14
MATTOON        CLEAR     22  15  75 SE8       30.26S WCI  12
PARIS*         CLEAR     21  18  89 N3        30.30R
$$

ILZ079-100>102-281300-
SOUTHWEST ILLINOIS

CITY           SKY/WX    TMP DP  RH WIND       PRES   REMARKS
BELLEVILLE     CLEAR     25  25  99 SE7       30.26R WCI  18
CAHOKIA*       PTCLDY    29  26  89 SE8       30.25S WCI  21
SPARTA*        FAIR      27  26  94 SE5       30.27S WCI  22
$$

ILZ064>066-069>071-074>076-080>082-084>086-088>090-092>094-281300-
SOUTH-CENTRAL ILLINOIS

CITY           SKY/WX    TMP DP  RH WIND       PRES   REMARKS
CARBONDALE     CLEAR     22  20  92 CALM      30.29R
6HR MIN TEMP:  21; 6HR MAX TEMP:  29;

CAIRO*         CLEAR     32  30  94 CALM      30.30R
EFFINGHAM*     CLEAR     25  17  74 E6        30.30R WCI  18
MARION         FAIR      27  25  93 E6        30.28F FOG     WCI  20
MT. VERNON     CLEAR     21  14  73 CALM      30.29S
CENTRALIA*     CLEAR     25  22  89 E5        30.28S WCI  19
SALEM*         CLEAR     27  24  88 E3        30.29R FOG
METROPOLIS*    FAIR      26  26 100 E5        30.28S FOG     WCI  20
$$

ILZ067-068-072-073-078-083-087-091-281300-
SOUTHEAST ILLINOIS

CITY           SKY/WX    TMP DP  RH WIND       PRES   REMARKS
LAWRENCEVILLE  CLEAR     24  19  81 E8        30.31S WCI  15
FLORA*         CLEAR     24  22  91 SE5       30.30S WCI  19
FAIRFIELD*     CLEAR     27  24  87 CALM      30.30R
HARRISBURG*    CLEAR     26  26 100 CALM      30.32R FOG
ROBINSON*      CLEAR     22  19  89 SE5       30.32S WCI  16
CARMI*         CLEAR     27  26  97 CALM      30.31R
$$

ABBREVIATIONS USED IN REMARKS
   TC - TEMPERATURE IN CELSIUS
  WCI - WIND CHILL INDEX
   HX - HEAT INDEX
  VSB - VISIBILITY
$$




USA.gov is the U.S. government's official web portal to all federal, state and local government web resources and services.